Regional Weather Roundup
Issued by NWS

Home | Current Version | Previous Version | Graphics & Text | Print | Product List | Glossary On
Versions: 1 2 3 4 5 6 7 8 9 10 11 12 13 14 15 16 17 18 19 20 21 22 23 24 25 26 27 28 29 30 31 32 33 34 35 36 37 38 39 40 41 42 43 44 45 46 47 48 49 50
000
ASUS43 KFSD 281510
RWRSD

WEATHER ROUNDUP FOR SOUTH DAKOTA
NATIONAL WEATHER SERVICE SIOUX FALLS SD
1000 AM CDT WED JUN 28 2017

NOTE: "FAIR" INDICATES FEW OR NO CLOUDS BELOW 12,000 FEET WITH NO
SIGNIFICANT WEATHER AND/OR OBSTRUCTIONS TO VISIBILITY.


SDZ001>005-009-010-012>017-281600-
NORTHWEST AND NORTH CENTRAL SOUTH DAKOTA

CITY           SKY/WX    TMP DP  RH WIND       PRES   REMARKS
BUFFALO          N/A     70  43  37 N10       29.74R
FAITH            N/A     71  52  50 N18       29.73R
MOBRIDGE       CLOUDY    75  55  49 NW23      29.62R
$$

SDZ012>016-024>037-041>051-057-063-072>074-281600-
SOUTHWEST AND SOUTH CENTRAL SOUTH DAKOTA

CITY           SKY/WX    TMP DP  RH WIND       PRES   REMARKS
RAPID CTY ARPT SUNNY     70  55  59 NW21      29.80S
PIERRE         MOSUNNY   72  59  63 NW18      29.65S
CUSTER         SUNNY     66  43  43 VRB3      29.91S
PHILIP         SUNNY     72  60  66 NW15G22   29.73R
PINE RIDGE     SUNNY     68  56  65 W6        29.84R
SPEARFISH      FAIR      64  55  72 VRB7      29.86R
WINNER         FAIR      76  57  51 NW13G21   29.71R
$$

SDZ004>011-016>023-039-040-281600-
NORTHEAST SOUTH DAKOTA

CITY           SKY/WX    TMP DP  RH WIND       PRES   REMARKS
ABERDEEN       PTSUNNY   71  61  70 NW13      29.55R
WATERTOWN      CLOUDY    68  61  78 W16G25    29.54S
BROOKINGS      MOSUNNY   71  62  73 SW14      29.59F
SISSETON         N/A     68  63  84 W18G24    29.45S
$$

SDZ017-020-022-023-036>040-048>070-281600-
SOUTHEAST SOUTH DAKOTA

CITY           SKY/WX    TMP DP  RH WIND       PRES   REMARKS
SIOUX FALLS    CLOUDY    71  65  81 VRB5      29.62F
HURON          CLOUDY    72  65  78 W13       29.59F
CHAMBERLAIN    MOSUNNY   74  61  63 W14       29.67R
MITCHELL       CLOUDY    77  62  59 W10       29.61R
YANKTON        SUNNY     75  61  61 SW12      29.65S
$$

ABBREVIATIONS USED IN REMARKS
   TC - TEMPERATURE IN CELSIUS
  WCI - WIND CHILL INDEX
   HX - HEAT INDEX
  VSB - VISIBILITY





USA.gov is the U.S. government's official web portal to all federal, state and local government web resources and services.